Find Yaogan 34-01

NORAD ID: 48340 Int'l Des: 2021-037 Owner: ZLZB Country: CN Constellation: yaogan operational
LEOCIRCULAR

实时位置

正在加载3D地球...

关于 Yaogan 34-01

正在加载描述...

即将过境

Passes for default location (London). Set your location on the main map for personalized predictions.

高度历史

Loading altitude history...

两行轨道根数

1 48340U 21037A 26121.89589457 -.00000046 00000-0 72737-4 0 9990
2 48340 63.4028 265.2868 0083509 357.2447 2.8109 13.45467798245777
Epoch: May 1, 2026 • Age: 8 hours

当前状态

高度 1125.0 km
速度 7.28 km/s
星下点 54.61°N, 101.82°E
发射日期 Apr 30, 2021
运行时间 5 years
类型 military

技术详情

分类 Payload
质量 500.00 kg
干质量 500.00 kg
总质量 500.00 kg
长度 0.50 m
直径 0.50 m
跨度 1.00 m
形状 Box + 2 Pan
制造商 DFHZ
阶段状态 In Orbit
所有者/国家 ZLZB/CN

Most Searched